GW2328 Weather Reports


Display with metric or nautical units.
time (UTC)temp
F
wind
direction
speed
MPH
gust
MPH
rain 1hr
in
rain 24hr
in
rain mn
in
humidity
%
barometer
mb
20260902215136 100 157 0.0 0.0 0.00 0.00 0.00 47 1020.3
20260902214631 100 144 0.0 1.0 0.00 0.00 0.00 47 1020.4
20260902214130 100 171 1.0 2.0 0.00 0.00 0.00 46 1020.2
20260902213626 100 158 0.0 2.0 0.00 0.00 0.00 47 1020.3
20260902213125 100 153 0.0 2.0 0.00 0.00 0.00 46 1020.3
20260902212621 99 160 2.0 3.0 0.00 0.00 0.00 47 1020.3
20260902212117 99 108 1.0 2.0 0.00 0.00 0.00 47 1020.4
20260902211613 99 165 2.0 3.0 0.00 0.00 0.00 47 1020.4
20260902211108 100 183 0.0 1.0 0.00 0.00 0.00 47 1020.3
20260902210607 100 158 2.0 2.0 0.00 0.00 0.00 48 1020.4
20260902205601 99 190 0.0 2.0 0.00 0.00 0.00 49 1020.4
20260902205056 99 145 0.0 3.0 0.00 0.00 0.00 48 1020.5
20260902204551 98 167 1.0 1.0 0.00 0.00 0.00 48 1020.4
20260902204046 100 148 0.0 1.0 0.00 0.00 0.00 46 1020.6
20260902203541 100 154 0.0 5.0 0.00 0.00 0.00 47 1020.6
20260902203040 99 174 1.0 1.0 0.00 0.00 0.00 48 1020.8
20260902202536 100 139 1.0 3.0 0.00 0.00 0.00 47 1020.7
20260902202032 99 170 2.0 2.0 0.00 0.00 0.00 47 1020.8
20260902201528 99 201 1.0 2.0 0.00 0.00 0.00 47 1021.0
20260902201027 100 221 3.0 5.0 0.00 0.00 0.00 47 1021.0
20260902200522 100 152 0.0 2.0 0.00 0.00 0.00 46 1021.0
20260902200019 100 162 1.0 2.0 0.00 0.00 0.00 47 1020.8
20260902195514 99 246 3.0 3.0 0.00 0.00 0.00 47 1020.9
20260902195013 99 193 1.0 6.0 0.00 0.00 0.00 48 1020.9
20260902194513 98 197 0.0 3.0 0.00 0.00 0.00 49 1021.1
20260902194008 97 113 2.0 3.0 0.00 0.00 0.00 50 1021.2
20260902193504 96 140 1.0 7.0 0.00 0.00 0.00 49 1021.2
20260902193003 98 144 0.0 0.0 0.00 0.00 0.00 49 1021.3
20260902192502 99 144 0.0 2.0 0.00 0.00 0.00 48 1021.4
20260902192001 100 211 2.0 3.0 0.00 0.00 0.00 47 1021.2
20260902191456 100 148 0.0 1.0 0.00 0.00 0.00 49 1021.4
20260902190951 99 158 0.0 1.0 0.00 0.00 0.00 48 1021.4
20260902190446 100 218 2.0 2.0 0.00 0.00 0.00 49 1021.4
20260902185942 99 149 0.0 3.0 0.00 0.00 0.00 49 1021.5
20260902185438 100 136 2.0 5.0 0.00 0.00 0.00 49 1021.7
20260902184933 99 174 1.0 2.0 0.00 0.00 0.00 50 1021.5
20260902184428 99 128 0.0 2.0 0.00 0.00 0.00 50 1021.7
20260902183924 98 151 0.0 2.0 0.00 0.00 0.00 50 1021.9
20260902183420 98 148 1.0 3.0 0.00 0.00 0.00 49 1021.6
20260902182915 99 154 1.0 2.0 0.00 0.00 0.00 49 1021.7
20260902182411 99 152 2.0 3.0 0.00 0.00 0.00 51 1021.9
20260902181908 98 156 0.0 1.0 0.00 0.00 0.00 50 1022.0
20260902181403 97 219 2.0 3.0 0.00 0.00 0.00 51 1021.9
20260902180857 97 157 1.0 3.0 0.00 0.00 0.00 51 1021.9
20260902180352 97 152 2.0 5.0 0.00 0.00 0.00 53 1021.9
20260902175848 97 169 1.0 2.0 0.00 0.00 0.00 52 1021.9
20260902175343 96 128 1.0 1.0 0.00 0.00 0.00 53 1022.0
20260902174838 96 134 1.0 1.0 0.00 0.00 0.00 55 1022.3
20260902174335 95 158 0.0 2.0 0.00 0.00 0.00 54 1022.2
20260902173825 96 148 1.0 2.0 0.00 0.00 0.00 53 1022.2
20260902173325 96 145 0.0 3.0 0.00 0.00 0.00 53 1022.3
20260902172824 96 147 1.0 2.0 0.00 0.00 0.00 54 1022.4
20260902172319 96 154 1.0 2.0 0.00 0.00 0.00 54 1022.2
20260902171814 96 200 2.0 3.0 0.00 0.00 0.00 55 1022.3
20260902171309 96 143 1.0 2.0 0.00 0.00 0.00 55 1022.5
20260902170806 96 144 1.0 1.0 0.00 0.00 0.00 54 1022.5
20260902170300 96 135 2.0 3.0 0.00 0.00 0.00 55 1022.4
20260902165756 96 143 1.0 2.0 0.00 0.00 0.00 54 1022.5
20260902165250 96 141 0.0 3.0 0.00 0.00 0.00 55 1022.6
20260902164744 96 133 1.0 2.0 0.00 0.00 0.00 55 1022.8
20260902164238 96 126 0.0 1.0 0.00 0.00 0.00 56 1022.7
20260902163733 95 140 0.0 2.0 0.00 0.00 0.00 56 1022.5
20260902163228 95 145 1.0 2.0 0.00 0.00 0.00 55 1022.7
20260902162726 96 150 0.0 3.0 0.00 0.00 0.00 55 1022.8
20260902162221 96 191 1.0 2.0 0.00 0.00 0.00 57 1022.9
20260902161716 95 154 0.0 1.0 0.00 0.00 0.00 58 1022.8
20260902161212 94 157 1.0 2.0 0.00 0.00 0.00 59 1023.1
20260902160708 94 128 1.0 2.0 0.00 0.00 0.00 60 1022.8
20260902160203 94 144 0.0 2.0 0.00 0.00 0.00 60 1022.9
20260902155701 94 188 1.0 1.0 0.00 0.00 0.00 61 1022.9
20260902155159 95 134 0.0 2.0 0.00 0.00 0.00 61 1023.1
20260902154655 94 137 0.0 3.0 0.00 0.00 0.00 62 1023.0
20260902154154 94 106 0.0 2.0 0.00 0.00 0.00 63 1023.0
20260902153649 94 154 0.0 1.0 0.00 0.00 0.00 64 1023.1
20260902153144 93 145 0.0 0.0 0.00 0.00 0.00 66 1023.0
20260902152640 93 143 0.0 1.0 0.00 0.00 0.00 68 1023.3
20260902152135 93 141 0.0 1.0 0.00 0.00 0.00 69 1023.0
20260902151630 92 155 0.0 1.0 0.00 0.00 0.00 70 1023.1
20260902151125 91 131 0.0 1.0 0.00 0.00 0.00 72 1023.1
20260902150621 91 153 0.0 1.0 0.00 0.00 0.00 74 1023.1
20260902150115 91 145 0.0 0.0 0.00 0.00 0.00 77 1023.1
20260902145610 89 145 0.0 0.0 0.00 0.00 0.00 79 1023.5
20260902145109 89 154 1.0 2.0 0.00 0.00 0.00 81 1023.3
20260902144607 88 155 0.0 1.0 0.00 0.00 0.00 83 1023.4
20260902144107 87 153 0.0 1.0 0.00 0.00 0.00 85 1023.0
20260902143602 87 159 1.0 2.0 0.00 0.00 0.00 88 1023.0
20260902143057 86 155 0.0 1.0 0.00 0.00 0.00 91 1022.9
20260902142552 85 139 0.0 0.0 0.00 0.00 0.00 93 1023.3
20260902142048 84 142 0.0 0.0 0.00 0.00 0.00 95 1023.1
20260902141542 82 152 0.0 0.0 0.00 0.00 0.00 96 1023.4
20260902141037 81 153 0.0 0.0 0.00 0.00 0.00 97 1023.5
20260902140532 81 148 0.0 0.0 0.00 0.00 0.00 98 1023.4
20260902140027 80 149 0.0 0.0 0.00 0.00 0.00 98 1023.4
20260902135526 79 154 0.0 0.0 0.00 0.00 0.00 99 1023.5
20260902135022 78 150 0.0 0.0 0.00 0.00 0.00 99 1023.5
20260902134518 78 151 0.0 0.0 0.00 0.00 0.00 99 1023.3
20260902134018 77 153 0.0 0.0 0.00 0.00 0.00 99 1023.5
20260902133512 77 149 0.0 0.0 0.00 0.00 0.00 99 1023.4
20260902133012 76 149 0.0 0.0 0.00 0.00 0.00 99 1023.5
20260902132508 75 149 0.0 0.0 0.00 0.00 0.00 99 1023.4
20260902132003 75 149 0.0 0.0 0.00 0.00 0.00 99 1023.4
20260902131459 75 149 0.0 0.0 0.00 0.00 0.00 99 1023.5
20260902130958 74 149 0.0 0.0 0.00 0.00 0.00 99 1023.5
20260902130454 74 149 0.0 0.0 0.00 0.00 0.00 99 1023.3
20260902125949 73 149 0.0 0.0 0.00 0.00 0.00 99 1023.5
20260902125446 73 149 0.0 0.0 0.00 0.00 0.00 99 1023.5
20260902124941 72 149 0.0 0.0 0.00 0.00 0.00 99 1023.6
20260902124437 72 149 0.0 0.0 0.00 0.00 0.00 99 1023.5
20260902123932 71 149 0.0 0.0 0.00 0.00 0.00 99 1023.6
20260902123428 71 149 0.0 0.0 0.00 0.00 0.00 99 1023.5
20260902122926 71 149 0.0 0.0 0.00 0.00 0.00 99 1023.3
20260902122423 71 149 0.0 0.0 0.00 0.00 0.00 99 1023.4
20260902121918 71 149 0.0 0.0 0.00 0.00 0.00 99 1023.3
20260902121413 70 149 0.0 0.0 0.00 0.00 0.00 99 1023.3
20260902120908 70 149 0.0 0.0 0.00 0.00 0.00 99 1023.0
20260902120404 70 149 0.0 0.0 0.00 0.00 0.00 99 1022.9
20260902115903 70 149 0.0 0.0 0.00 0.00 0.00 99 1022.9
20260902115400 70 149 0.0 0.0 0.00 0.00 0.00 99 1022.8
20260902114856 70 149 0.0 0.0 0.00 0.00 0.00 99 1022.8
20260902114351 70 149 0.0 0.0 0.00 0.00 0.00 99 1022.7
20260902113846 70 149 0.0 0.0 0.00 0.00 0.00 99 1022.6
20260902113342 70 149 0.0 0.0 0.00 0.00 0.00 99 1022.6
20260902112841 70 149 0.0 0.0 0.00 0.00 0.00 99 1022.6
20260902112337 70 149 0.0 0.0 0.00 0.00 0.00 99 1022.8
20260902111833 70 149 0.0 0.0 0.00 0.00 0.00 99 1022.6
20260902111329 70 149 0.0 0.0 0.00 0.00 0.00 99 1022.5
20260902110824 70 149 0.0 0.0 0.00 0.00 0.00 99 1022.6
20260902110320 70 149 0.0 0.0 0.00 0.00 0.00 99 1022.3
20260902105820 70 149 0.0 0.0 0.00 0.00 0.00 99 1022.6
20260902105315 70 149 0.0 0.0 0.00 0.00 0.00 99 1022.4
20260902104810 70 149 0.0 0.0 0.00 0.00 0.00 99 1022.4
20260902104307 70 149 0.0 0.0 0.00 0.00 0.00 99 1022.5
20260902103806 70 149 0.0 0.0 0.00 0.00 0.00 99 1022.5
20260902103301 70 149 0.0 0.0 0.00 0.00 0.00 99 1022.2
20260902102756 70 149 0.0 0.0 0.00 0.00 0.00 99 1022.5
20260902102254 70 149 0.0 0.0 0.00 0.00 0.00 99 1022.2
20260902101749 70 149 0.0 0.0 0.00 0.00 0.00 99 1022.3
20260902101244 70 149 0.0 0.0 0.00 0.00 0.00 99 1022.4
20260902100743 70 149 0.0 0.0 0.00 0.00 0.00 99 1022.3
20260902100237 70 149 0.0 0.0 0.00 0.00 0.00 99 1022.4
20260902095732 70 149 0.0 0.0 0.00 0.00 0.00 99 1022.2
20260902095226 70 149 0.0 0.0 0.00 0.00 0.00 99 1022.2
20260902094721 70 149 0.0 0.0 0.00 0.00 0.00 99 1022.2
20260902094218 70 149 0.0 0.0 0.00 0.00 0.00 99 1022.0
20260902093716 70 149 0.0 0.0 0.00 0.00 0.00 99 1021.9
20260902093212 70 149 0.0 0.0 0.00 0.00 0.00 99 1021.9
20260902092712 70 149 0.0 0.0 0.00 0.00 0.00 99 1021.8
20260902092207 71 149 0.0 0.0 0.00 0.00 0.00 99 1021.7
20260902091701 71 149 0.0 0.0 0.00 0.00 0.00 99 1021.8
20260902091158 71 149 0.0 0.0 0.00 0.00 0.00 99 1021.7
20260902090654 71 149 0.0 0.0 0.00 0.00 0.00 99 1021.6
20260902090152 71 149 0.0 0.0 0.00 0.00 0.00 99 1021.6
20260902085647 71 149 0.0 0.0 0.00 0.00 0.00 98 1021.8
20260902085142 71 149 0.0 0.0 0.00 0.00 0.00 98 1021.9
20260902084638 71 149 0.0 0.0 0.00 0.00 0.00 98 1021.8
20260902084134 71 150 0.0 0.0 0.00 0.00 0.00 98 1021.5
20260902083629 71 150 0.0 0.0 0.00 0.00 0.00 98 1021.7
20260902083128 71 150 0.0 0.0 0.00 0.00 0.00 98 1021.7
20260902082624 71 150 0.0 0.0 0.00 0.00 0.00 98 1021.7
20260902082120 71 150 0.0 0.0 0.00 0.00 0.00 98 1021.7
20260902081617 71 150 0.0 0.0 0.00 0.00 0.00 98 1021.7
20260902081116 71 150 0.0 0.0 0.00 0.00 0.00 98 1021.7
20260902080612 71 150 0.0 0.0 0.00 0.00 0.00 98 1021.7
20260902080108 71 150 0.0 0.0 0.00 0.00 0.00 98 1021.6
20260902075607 71 150 0.0 0.0 0.00 0.00 0.00 98 1021.8
20260902075104 71 150 0.0 0.0 0.00 0.00 0.00 98 1021.6
20260902074559 71 150 0.0 0.0 0.00 0.00 0.00 98 1021.5
20260902074054 71 150 0.0 0.0 0.00 0.00 0.00 98 1021.4
20260902073549 71 150 0.0 0.0 0.00 0.00 0.00 98 1021.5
20260902073046 71 150 0.0 0.0 0.00 0.00 0.00 98 1021.5
20260902072541 71 150 0.0 0.0 0.00 0.00 0.00 98 1021.4
20260902072038 71 150 0.0 0.0 0.00 0.00 0.00 98 1021.4
20260902071537 72 150 0.0 0.0 0.00 0.00 0.00 98 1021.5
20260902071033 72 150 0.0 0.0 0.00 0.00 0.00 98 1021.6
20260902070529 72 150 0.0 0.0 0.00 0.00 0.00 97 1021.5
20260902070023 72 150 0.0 0.0 0.00 0.00 0.00 97 1021.4
20260902065517 72 150 0.0 0.0 0.00 0.00 0.00 97 1021.4
20260902065013 72 150 0.0 0.0 0.00 0.00 0.00 97 1021.6
20260902064509 72 150 0.0 0.0 0.00 0.00 0.00 97 1021.4
20260902064004 72 150 0.0 0.0 0.00 0.00 0.00 97 1021.6
20260902063503 72 150 0.0 0.0 0.00 0.00 0.00 97 1021.7
20260902062959 72 150 0.0 0.0 0.00 0.00 0.00 97 1021.6
20260902062457 72 150 0.0 0.0 0.00 0.00 0.00 97 1021.5
20260902061953 73 150 0.0 0.0 0.00 0.00 0.00 97 1021.5
20260902061448 73 150 0.0 0.0 0.00 0.00 0.00 97 1021.6
20260902060944 73 150 0.0 0.0 0.00 0.00 0.00 97 1021.7
20260902060440 73 150 0.0 0.0 0.00 0.00 0.00 97 1021.6
20260902055935 73 150 0.0 0.0 0.00 0.00 0.00 97 1021.6
20260902055431 73 150 0.0 0.0 0.00 0.00 0.00 96 1021.7
20260902054926 73 150 0.0 0.0 0.00 0.00 0.00 96 1021.6
20260902054421 73 150 0.0 0.0 0.00 0.00 0.00 96 1021.5
20260902053917 73 150 0.0 0.0 0.00 0.00 0.00 96 1021.6
20260902053412 73 150 0.0 0.0 0.00 0.00 0.00 96 1021.7
20260902052911 73 150 0.0 0.0 0.00 0.00 0.00 96 1021.5
20260902052406 73 150 0.0 0.0 0.00 0.00 0.00 96 1021.5
20260902051902 73 150 0.0 0.0 0.00 0.00 0.00 96 1021.5
20260902051356 73 150 0.0 0.0 0.00 0.00 0.00 96 1021.5
20260902050855 73 150 0.0 0.0 0.00 0.00 0.00 96 1021.4
20260902050355 73 150 0.0 0.0 0.00 0.00 0.00 95 1021.4
20260902045850 74 150 0.0 0.0 0.00 0.00 0.00 95 1021.5
20260902045346 74 150 0.0 0.0 0.00 0.00 0.00 95 1021.5
20260902044842 74 150 0.0 0.0 0.00 0.00 0.00 95 1021.5
20260902044337 74 150 0.0 0.0 0.00 0.00 0.00 95 1021.4
20260902043837 74 150 0.0 0.0 0.00 0.00 0.00 95 1021.4
20260902043333 74 150 0.0 0.0 0.00 0.00 0.00 95 1021.7
20260902042832 74 150 0.0 0.0 0.00 0.00 0.00 95 1021.6
20260902042327 74 149 0.0 0.0 0.00 0.00 0.00 94 1021.6
20260902041822 74 150 0.0 0.0 0.00 0.00 0.00 94 1021.3
20260902041322 74 150 0.0 0.0 0.00 0.00 0.00 94 1021.7
20260902040821 75 150 0.0 0.0 0.00 0.00 0.00 94 1021.4
20260902040317 75 150 0.0 0.0 0.00 0.00 0.00 94 1021.4
20260902035815 75 150 0.0 0.0 0.00 0.00 0.00 93 1021.3
20260902035311 75 150 0.0 0.0 0.00 0.00 0.00 93 1021.4
20260902034810 75 150 0.0 0.0 0.00 0.00 0.00 93 1021.4
20260902034305 75 150 0.0 0.0 0.00 0.00 0.00 93 1021.6
20260902033803 75 150 0.0 0.0 0.00 0.00 0.00 93 1021.5
20260902033259 75 150 0.0 0.0 0.00 0.00 0.00 92 1021.5
20260902032757 76 150 0.0 0.0 0.00 0.00 0.00 92 1021.5
20260902032252 76 149 0.0 0.0 0.00 0.00 0.00 92 1021.5
20260902031751 76 150 0.0 0.0 0.00 0.00 0.00 91 1021.4
20260902031247 76 150 0.0 0.0 0.00 0.00 0.00 91 1021.5
20260902030743 76 150 0.0 0.0 0.00 0.00 0.00 91 1021.7
20260902030238 76 150 0.0 0.0 0.00 0.00 0.00 91 1021.7
20260902025737 76 150 0.0 0.0 0.00 0.00 0.00 90 1021.6
20260902025232 77 150 0.0 0.0 0.00 0.00 0.00 90 1021.6
20260902024727 77 150 0.0 0.0 0.00 0.00 0.00 90 1021.7
20260902024222 77 150 0.0 0.0 0.00 0.00 0.00 89 1021.6
20260902023718 77 150 0.0 0.0 0.00 0.00 0.00 89 1021.5
20260902023213 77 150 0.0 0.0 0.00 0.00 0.00 89 1021.4
20260902022712 77 150 0.0 0.0 0.00 0.00 0.00 88 1021.5
20260902022208 78 150 0.0 0.0 0.00 0.00 0.00 88 1021.6
20260902021703 78 149 0.0 0.0 0.00 0.00 0.00 87 1021.5
20260902021158 78 150 0.0 0.0 0.00 0.00 0.00 87 1021.5
20260902020654 78 150 0.0 0.0 0.00 0.00 0.00 86 1021.5
20260902020150 78 150 0.0 0.0 0.00 0.00 0.00 86 1021.6
20260902015645 79 150 0.0 0.0 0.00 0.00 0.00 86 1021.5
20260902015142 79 150 0.0 0.0 0.00 0.00 0.00 85 1021.6
20260902014637 79 150 0.0 0.0 0.00 0.00 0.00 85 1021.3
20260902014133 79 150 0.0 0.0 0.00 0.00 0.00 84 1021.5
20260902013632 80 150 0.0 0.0 0.00 0.00 0.00 83 1021.4
20260902013128 80 150 0.0 0.0 0.00 0.00 0.00 83 1021.4
20260902012623 80 150 0.0 0.0 0.00 0.00 0.00 82 1021.3
20260902012118 80 150 0.0 0.0 0.00 0.00 0.00 81 1021.3
20260902011614 80 150 0.0 0.0 0.00 0.00 0.00 81 1021.1
20260902011113 81 150 0.0 0.0 0.00 0.00 0.00 80 1020.9
20260902010613 81 150 0.0 0.0 0.00 0.00 0.00 79 1021.1
20260902010109 82 150 0.0 0.0 0.00 0.00 0.00 79 1021.0
20260902005606 82 150 0.0 0.0 0.00 0.00 0.00 78 1020.9
20260902005103 82 150 0.0 0.0 0.00 0.00 0.00 77 1020.9
20260902004602 83 150 0.0 0.0 0.00 0.00 0.00 76 1020.9
20260902004057 83 150 0.0 0.0 0.00 0.00 0.00 75 1020.8
20260902003552 84 150 0.0 0.0 0.00 0.00 0.00 75 1020.9
20260902003048 84 150 0.0 0.0 0.00 0.00 0.00 74 1020.7
20260902002544 85 150 0.0 0.0 0.00 0.00 0.00 73 1020.7
20260902002038 85 150 0.0 0.0 0.00 0.00 0.00 71 1021.0
20260902001533 86 150 0.0 0.0 0.00 0.00 0.00 70 1020.6
20260902001028 86 150 0.0 0.0 0.00 0.00 0.00 68 1020.9
20260902000523 87 150 0.0 0.0 0.00 0.00 0.00 67 1021.0
20260902000018 87 150 0.0 0.0 0.00 0.00 0.00 67 1020.7
20260901235513 88 150 0.0 0.0 0.00 0.00 0.00 66 1020.7
20260901235008 88 150 0.0 0.0 0.00 0.00 0.00 65 1020.8
20260901234507 89 150 0.0 0.0 0.00 0.00 0.00 65 1020.8
20260901234002 89 150 0.0 0.0 0.00 0.00 0.00 64 1020.8
20260901233457 89 150 0.0 0.0 0.00 0.00 0.00 63 1021.0
20260901232953 90 150 0.0 0.0 0.00 0.00 0.00 63 1021.2
20260901232448 91 150 0.0 0.0 0.00 0.00 0.00 62 1021.0
20260901231943 91 150 0.0 0.0 0.00 0.00 0.00 61 1021.0
20260901231439 91 151 0.0 0.0 0.00 0.00 0.00 60 1021.1
20260901230936 92 151 0.0 0.0 0.00 0.00 0.00 59 1021.1
20260901230435 92 151 0.0 0.0 0.00 0.00 0.00 59 1021.0
20260901225931 92 153 0.0 0.0 0.00 0.00 0.00 57 1021.1
20260901225430 93 151 0.0 0.0 0.00 0.00 0.00 57 1021.1
20260901224925 93 148 0.0 1.0 0.00 0.00 0.00 56 1021.1
20260901224421 93 150 0.0 0.0 0.00 0.00 0.00 55 1021.2
20260901223918 94 145 0.0 0.0 0.00 0.00 0.00 55 1021.2
20260901223413 94 145 0.0 0.0 0.00 0.00 0.00 54 1020.9
20260901222908 94 148 0.0 0.0 0.00 0.00 0.00 53 1021.0
20260901222405 94 149 0.0 0.0 0.00 0.00 0.00 52 1021.0
20260901221900 95 155 1.0 1.0 0.00 0.00 0.00 51 1020.7
20260901221355 96 149 0.0 1.0 0.00 0.00 0.00 51 1021.0
20260901220850 97 148 1.0 1.0 0.00 0.00 0.00 49 1020.6
20260901220349 97 154 0.0 2.0 0.00 0.00 0.00 49 1021.0
20260901215848 98 158 0.0 1.0 0.00 0.00 0.00 47 1020.9
20260901215347 97 154 0.0 1.0 0.00 0.00 0.00 47 1020.7